PWSweather.com
Personal Weather Stations
Station Observations
KNHRINDG3
Converse Meadow Pond, Rindge, NH 03461

Converse Meadow PondRindge, NH 03461

Lat: 42.74, Lon: -71.98

Elevation: 1060

Station Type: Davis Vantage Pro 2

http://nhwoodworker.com/weather/index.php

Latest ConditionsUpdated 8:10:17 AM EDT Wednesday, Oct 22, 2014
Currently Today's Max Today's Min Today's Average
Temperature 46.6°F8.1°C 48.2°F9.0°C 46.5°F8.1°C 47.0°F8.3°C
Dew Point 46.3°F7.9°C 47.7°F8.7°C 46.1°F7.8°C 46.6°F8.1°C
Winds Calm Calm 2.0 mph WNW3.2 kmh WNW - 0.3 mph 0.5 kmh
Wind Gusts 5.0 mph8.0 kmh 5.0 mph8.0 kmh - -
Humidity 99% 99% 98% 98%
Pressure 30.02 in1016.6 mb 30.02 in1016.6 mb 29.97 in1014.9 mb -
Precipitation - 0.06 in1.5 mm - -
Hour Temp Dew Point Humidity Winds Wind Gusts Pressure Precip Precip Rate Daily Precip Total
08:10 AM 46.6°F8.1°C 46.3°F7.9°C 99% Calm Calm 5.0 mph8.0 kmh 30.02 in1016.6 mb 0.01 in0.3 mm 0.06 in/hr1.5 mm/hr 0.06 in1.5 mm
08:00 AM 46.6°F8.1°C 46.3°F7.9°C 99% 2.0 mph WNW3.2 kmh WNW 5.0 mph8.0 kmh 30.02 in1016.6 mb 0.00 in0.0 mm 0.00 in/hr0.0 mm/hr 0.05 in1.3 mm
07:50 AM 46.5°F8.1°C 46.3°F7.9°C 99% 1.0 mph SW1.6 kmh SW 3.0 mph4.8 kmh 30.02 in1016.6 mb 0.00 in0.0 mm 0.00 in/hr0.0 mm/hr 0.05 in1.3 mm
07:40 AM 46.6°F8.1°C 46.3°F7.9°C 99% Calm Calm -- 30.02 in1016.6 mb 0.00 in0.0 mm 0.00 in/hr0.0 mm/hr 0.05 in1.3 mm
07:30 AM 46.6°F8.1°C 46.3°F7.9°C 99% 1.0 mph ENE1.6 kmh ENE 3.0 mph4.8 kmh 30.02 in1016.6 mb 0.00 in0.0 mm 0.00 in/hr0.0 mm/hr 0.05 in1.3 mm
07:20 AM 46.6°F8.1°C 46.4°F8.0°C 99% Calm Calm 1.0 mph1.6 kmh 30.01 in1016.3 mb 0.01 in0.3 mm 0.06 in/hr1.5 mm/hr 0.05 in1.3 mm
07:10 AM 46.7°F8.2°C 46.4°F8.0°C 99% Calm Calm 1.0 mph1.6 kmh 30.01 in1016.3 mb 0.00 in0.0 mm 0.00 in/hr0.0 mm/hr 0.04 in1.0 mm
07:00 AM 46.8°F8.2°C 46.5°F8.1°C 99% 1.0 mph ENE1.6 kmh ENE 5.0 mph8.0 kmh 30.01 in1016.3 mb 0.00 in0.0 mm 0.00 in/hr0.0 mm/hr 0.04 in1.0 mm
06:50 AM 46.8°F8.2°C 46.5°F8.1°C 99% 1.0 mph NW1.6 kmh NW 2.0 mph3.2 kmh 30.01 in1016.3 mb 0.01 in0.3 mm 0.06 in/hr1.5 mm/hr 0.04 in1.0 mm
06:40 AM 46.7°F8.2°C 46.5°F8.1°C 99% Calm Calm -- 30.01 in1016.3 mb 0.01 in0.3 mm 0.06 in/hr1.5 mm/hr 0.03 in0.8 mm
06:30 AM 46.7°F8.2°C 46.4°F8.0°C 99% Calm Calm 1.0 mph1.6 kmh 30.00 in1015.9 mb 0.01 in0.3 mm 0.06 in/hr1.5 mm/hr 0.03 in0.8 mm
06:20 AM 46.7°F8.2°C 46.4°F8.0°C 99% Calm Calm 3.0 mph4.8 kmh 30.00 in1015.9 mb 0.01 in0.3 mm 0.06 in/hr1.5 mm/hr 0.02 in0.5 mm
06:10 AM 46.7°F8.2°C 46.4°F8.0°C 99% Calm Calm 2.0 mph3.2 kmh 30.01 in1016.3 mb 0.00 in0.0 mm 0.00 in/hr0.0 mm/hr 0.01 in0.3 mm
06:00 AM 46.7°F8.2°C 46.4°F8.0°C 99% Calm Calm 1.0 mph1.6 kmh 30.00 in1015.9 mb 0.00 in0.0 mm 0.00 in/hr0.0 mm/hr 0.01 in0.3 mm
05:50 AM 46.7°F8.2°C 46.2°F7.9°C 98% Calm Calm -- 30.00 in1015.9 mb 0.00 in0.0 mm 0.00 in/hr0.0 mm/hr 0.01 in0.3 mm
05:40 AM 46.8°F8.2°C 46.5°F8.1°C 99% 1.0 mph SSE1.6 kmh SSE 2.0 mph3.2 kmh 30.00 in1015.9 mb 0.00 in0.0 mm 0.00 in/hr0.0 mm/hr 0.01 in0.3 mm
05:30 AM 46.8°F8.2°C 46.5°F8.1°C 99% Calm Calm -- 30.00 in1015.9 mb 0.00 in0.0 mm 0.00 in/hr0.0 mm/hr 0.01 in0.3 mm
05:20 AM 46.7°F8.2°C 46.5°F8.1°C 99% Calm Calm 2.0 mph3.2 kmh 30.00 in1015.9 mb 0.00 in0.0 mm 0.00 in/hr0.0 mm/hr 0.01 in0.3 mm
05:10 AM 46.7°F8.2°C 46.4°F8.0°C 99% Calm Calm 2.0 mph3.2 kmh 30.00 in1015.9 mb 0.01 in0.3 mm 0.06 in/hr1.5 mm/hr 0.01 in0.3 mm
05:00 AM 46.7°F8.2°C 46.4°F8.0°C 99% Calm Calm 1.0 mph1.6 kmh 30.00 in1015.9 mb 0.00 in0.0 mm 0.00 in/hr0.0 mm/hr 0.00 in0.0 mm
04:50 AM 46.6°F8.1°C 46.1°F7.8°C 98% 1.0 mph E1.6 kmh E 2.0 mph3.2 kmh 30.00 in1015.9 mb 0.00 in0.0 mm 0.00 in/hr0.0 mm/hr 0.00 in0.0 mm
04:40 AM 46.6°F8.1°C 46.1°F7.8°C 98% Calm Calm 2.0 mph3.2 kmh 29.99 in1015.6 mb 0.00 in0.0 mm 0.00 in/hr0.0 mm/hr 0.00 in0.0 mm
04:30 AM 46.6°F8.1°C 46.1°F7.8°C 98% Calm Calm 1.0 mph1.6 kmh 29.99 in1015.6 mb 0.00 in0.0 mm 0.00 in/hr0.0 mm/hr 0.00 in0.0 mm
04:20 AM 46.6°F8.1°C 46.1°F7.8°C 98% 1.0 mph WNW1.6 kmh WNW 2.0 mph3.2 kmh 29.98 in1015.2 mb 0.00 in0.0 mm 0.00 in/hr0.0 mm/hr 0.00 in0.0 mm
04:10 AM 46.7°F8.2°C 46.2°F7.9°C 98% Calm Calm 2.0 mph3.2 kmh 29.98 in1015.2 mb 0.00 in0.0 mm 0.00 in/hr0.0 mm/hr 0.00 in0.0 mm
04:00 AM 46.7°F8.2°C 46.2°F7.9°C 98% Calm Calm 3.0 mph4.8 kmh 29.98 in1015.2 mb 0.00 in0.0 mm 0.00 in/hr0.0 mm/hr 0.00 in0.0 mm
03:50 AM 46.7°F8.2°C 46.2°F7.9°C 98% Calm Calm 2.0 mph3.2 kmh 29.98 in1015.2 mb 0.00 in0.0 mm 0.00 in/hr0.0 mm/hr 0.00 in0.0 mm
03:40 AM 46.7°F8.2°C 46.2°F7.9°C 98% Calm Calm -- 29.98 in1015.2 mb 0.00 in0.0 mm 0.00 in/hr0.0 mm/hr 0.00 in0.0 mm
03:30 AM 46.8°F8.2°C 46.3°F7.9°C 98% Calm Calm 1.0 mph1.6 kmh 29.97 in1014.9 mb 0.00 in0.0 mm 0.00 in/hr0.0 mm/hr 0.00 in0.0 mm
03:20 AM 46.9°F8.3°C 46.4°F8.0°C 98% Calm Calm -- 29.98 in1015.2 mb 0.00 in0.0 mm 0.00 in/hr0.0 mm/hr 0.00 in0.0 mm
03:10 AM 47.0°F8.3°C 46.4°F8.0°C 98% 1.0 mph NW1.6 kmh NW 3.0 mph4.8 kmh 29.98 in1015.2 mb 0.00 in0.0 mm 0.00 in/hr0.0 mm/hr 0.00 in0.0 mm
03:00 AM 47.0°F8.3°C 46.5°F8.1°C 98% Calm Calm -- 29.98 in1015.2 mb 0.00 in0.0 mm 0.00 in/hr0.0 mm/hr 0.00 in0.0 mm
02:50 AM 47.0°F8.3°C 46.5°F8.1°C 98% 1.0 mph SE1.6 kmh SE 2.0 mph3.2 kmh 29.97 in1014.9 mb 0.00 in0.0 mm 0.00 in/hr0.0 mm/hr 0.00 in0.0 mm
02:40 AM 47.1°F8.4°C 46.6°F8.1°C 98% Calm Calm 3.0 mph4.8 kmh 29.98 in1015.2 mb 0.00 in0.0 mm 0.00 in/hr0.0 mm/hr 0.00 in0.0 mm
02:30 AM 47.2°F8.4°C 46.7°F8.2°C 98% 1.0 mph SE1.6 kmh SE 2.0 mph3.2 kmh 29.97 in1014.9 mb 0.00 in0.0 mm 0.00 in/hr0.0 mm/hr 0.00 in0.0 mm
02:20 AM 47.2°F8.4°C 46.7°F8.2°C 98% 1.0 mph ENE1.6 kmh ENE 2.0 mph3.2 kmh 29.98 in1015.2 mb 0.00 in0.0 mm 0.00 in/hr0.0 mm/hr 0.00 in0.0 mm
02:10 AM 47.2°F8.4°C 46.7°F8.2°C 98% Calm Calm 2.0 mph3.2 kmh 29.98 in1015.2 mb 0.00 in0.0 mm 0.00 in/hr0.0 mm/hr 0.00 in0.0 mm
02:00 AM 47.3°F8.5°C 46.8°F8.2°C 98% Calm Calm 2.0 mph3.2 kmh 29.98 in1015.2 mb 0.00 in0.0 mm 0.00 in/hr0.0 mm/hr 0.00 in0.0 mm
01:50 AM 47.3°F8.5°C 46.8°F8.2°C 98% Calm Calm 1.0 mph1.6 kmh 29.98 in1015.2 mb 0.00 in0.0 mm 0.00 in/hr0.0 mm/hr 0.00 in0.0 mm
01:40 AM 47.3°F8.5°C 46.8°F8.2°C 98% Calm Calm 1.0 mph1.6 kmh 29.98 in1015.2 mb 0.00 in0.0 mm 0.00 in/hr0.0 mm/hr 0.00 in0.0 mm
01:30 AM 47.4°F8.6°C 46.8°F8.2°C 98% 1.0 mph SW1.6 kmh SW 2.0 mph3.2 kmh 29.99 in1015.6 mb 0.00 in0.0 mm 0.00 in/hr0.0 mm/hr 0.00 in0.0 mm
01:20 AM 47.4°F8.6°C 46.9°F8.3°C 98% 1.0 mph SE1.6 kmh SE 2.0 mph3.2 kmh 29.98 in1015.2 mb 0.00 in0.0 mm 0.00 in/hr0.0 mm/hr 0.00 in0.0 mm
01:10 AM 47.4°F8.6°C 46.9°F8.3°C 98% 1.0 mph NW1.6 kmh NW 1.0 mph1.6 kmh 29.99 in1015.6 mb 0.00 in0.0 mm 0.00 in/hr0.0 mm/hr 0.00 in0.0 mm
01:00 AM 47.6°F8.7°C 47.0°F8.3°C 98% Calm Calm 2.0 mph3.2 kmh 29.98 in1015.2 mb 0.00 in0.0 mm 0.00 in/hr0.0 mm/hr 0.00 in0.0 mm
12:50 AM 47.7°F8.7°C 47.2°F8.4°C 98% Calm Calm 1.0 mph1.6 kmh 29.98 in1015.2 mb 0.00 in0.0 mm 0.00 in/hr0.0 mm/hr 0.00 in0.0 mm
12:40 AM 47.8°F8.8°C 47.3°F8.5°C 98% Calm Calm 3.0 mph4.8 kmh 29.98 in1015.2 mb 0.00 in0.0 mm 0.00 in/hr0.0 mm/hr 0.00 in0.0 mm
12:30 AM 47.9°F8.8°C 47.4°F8.6°C 98% Calm Calm 1.0 mph1.6 kmh 29.99 in1015.6 mb 0.00 in0.0 mm 0.00 in/hr0.0 mm/hr 0.00 in0.0 mm
12:20 AM 47.9°F8.8°C 47.4°F8.6°C 98% Calm Calm -- 29.99 in1015.6 mb 0.00 in0.0 mm 0.00 in/hr0.0 mm/hr 0.00 in0.0 mm
12:10 AM 48.1°F8.9°C 47.5°F8.6°C 98% Calm Calm 2.0 mph3.2 kmh 29.99 in1015.6 mb 0.00 in0.0 mm 0.00 in/hr0.0 mm/hr 0.00 in0.0 mm
12:00 AM 48.2°F9.0°C 47.7°F8.7°C 98% 1.0 mph SSE1.6 kmh SSE 2.0 mph3.2 kmh 29.99 in1015.6 mb 0.00 in0.0 mm 0.00 in/hr0.0 mm/hr 0.00 in0.0 mm